Date String (YYYY-MM-DD hh:mm:ss) UTC,Instrument flags,absolute air pressure of the measurement (hPa),sample flow rate (lpm),inlet stack bypass flow (lpm),air temperature of the measurement (°C),ambient temperature measured by the external sensor (°C),aerosol sample conditioner tube jacket temperature (°C),OPC LED temperature (°C),internal box temperature (°C),relative humidity of the measurement (%),span deviation,mass concentration of particles derived from Lorenz-Mie calculation of OPC scattering (μg/m³),mass concentration of particles derived from Lorenz-Mie calculation of OPC scattering (μg/m³),mass concentration of particles derived from Lorenz-Mie calculation of OPC scattering (μg/m³)
DateTimeUTC,F1_M11,P_M11,Q1_M11,Q2_M11,T1_M11,T2_M11,T3_M11,T4_M11,T5_M11,U1_M11,ZSPAN_M11,X0_M11,X2_M11,X1_M11
2024-01-21 10:00:00,SystemResetWarning,0821.3,4.99,000.00,018.8,018.0,000.0,027.1,020.0,17.7,0000.0,0002.02,0000.55,0000.44
2024-01-21 10:01:00,SystemResetWarning,0821.3,5.00,000.00,018.8,018.0,000.0,027.1,020.0,17.7,0000.0,0001.97,0000.52,0000.42
2024-01-21 10:02:00,SystemResetWarning,0821.2,4.99,000.00,018.8,018.0,000.0,027.2,020.0,17.6,0000.0,0001.96,0000.51,0000.43
2024-01-21 10:03:00,SystemResetWarning,0821.1,5.01,000.00,018.8,018.0,000.0,027.2,020.0,17.7,0000.0,0001.96,0000.51,0000.43
2024-01-21 10:04:00,SystemResetWarning,0821.2,5.00,000.00,018.8,018.0,000.0,027.2,020.0,17.7,0000.0,0001.59,0000.50,0000.44
2024-01-21 10:05:00,SystemResetWarning,0821.1,5.01,000.00,018.8,018.0,000.0,027.2,020.0,17.8,0000.0,0000.62,0000.49,0000.43
2024-01-21 10:06:00,SystemResetWarning,0821.2,5.00,000.00,018.8,018.0,000.0,027.2,020.0,17.9,0000.0,0000.59,0000.48,0000.43
2024-01-21 10:07:00,SystemResetWarning,0821.1,5.01,000.00,018.8,018.0,000.0,027.1,020.0,18.0,0000.0,0000.64,0000.50,0000.44
2024-01-21 10:08:00,SystemResetWarning,0821.2,4.99,000.00,018.8,018.0,000.0,027.1,020.0,17.9,0000.0,0000.66,0000.51,0000.45
2024-01-21 10:09:00,SystemResetWarning,0821.1,5.00,000.00,018.8,018.0,000.0,027.2,020.0,17.7,0000.0,0000.68,0000.52,0000.46
2024-01-21 10:10:00,SystemResetWarning,0821.1,5.00,000.00,018.8,017.9,000.0,027.2,020.0,17.7,0000.0,0000.66,0000.52,0000.46
2024-01-21 10:11:00,SystemResetWarning,0821.1,5.00,000.00,018.8,017.9,000.0,027.2,020.0,17.8,0000.0,0000.64,0000.51,0000.47
2024-01-21 10:12:00,SystemResetWarning,0821.0,5.00,000.00,018.8,017.9,000.0,027.2,020.0,17.7,0000.0,0000.63,0000.51,0000.47
2024-01-21 10:13:00,SystemResetWarning,0821.0,5.00,000.00,018.8,017.9,000.0,027.2,020.0,17.8,0000.0,0000.64,0000.51,0000.47
2024-01-21 10:14:00,SystemResetWarning,0821.1,5.00,000.00,018.8,017.9,000.0,027.2,020.0,17.6,0000.0,0000.65,0000.51,0000.46
2024-01-21 10:15:00,SystemResetWarning,0821.0,5.00,000.00,018.8,017.9,000.0,027.2,020.0,17.6,0000.0,0000.64,0000.51,0000.46
2024-01-21 10:16:00,SystemResetWarning,0821.1,5.00,000.00,018.8,017.9,000.0,027.2,020.0,17.7,0000.0,0000.62,0000.50,0000.47
2024-01-21 10:17:00,SystemResetWarning,0821.1,5.00,000.00,018.8,017.9,000.0,027.2,020.0,17.6,0000.0,0000.65,0000.51,0000.47
2024-01-21 10:18:00,SystemResetWarning,0821.0,5.00,000.00,018.8,017.9,000.0,027.2,020.0,17.8,0000.0,0000.63,0000.50,0000.46
2024-01-21 10:19:00,SystemResetWarning,0821.0,4.99,000.00,018.8,017.9,000.0,027.1,020.0,17.6,0000.0,0000.62,0000.49,0000.46
2024-01-21 10:20:00,SystemResetWarning,0820.9,4.99,000.00,018.8,017.9,000.0,027.1,020.0,17.9,0000.0,0000.62,0000.49,0000.45
2024-01-21 10:21:00,SystemResetWarning,0820.9,5.00,000.00,018.8,017.9,000.0,027.1,020.0,17.6,0000.0,0000.62,0000.49,0000.45
2024-01-21 10:22:00,SystemResetWarning,0821.0,5.00,000.00,018.8,017.9,000.0,027.1,020.0,17.6,0000.0,0000.60,0000.48,0000.44
2024-01-21 10:23:00,SystemResetWarning,0820.9,5.01,000.00,018.8,017.9,000.0,027.1,020.0,17.4,0000.0,0000.61,0000.48,0000.45
2024-01-21 10:24:00,SystemResetWarning,0821.0,5.01,000.00,018.8,017.9,000.0,027.1,020.0,17.6,0000.0,0000.62,0000.49,0000.45
2024-01-21 10:25:00,SystemResetWarning,0821.0,5.00,000.00,018.8,017.9,000.0,027.1,020.0,17.7,0000.0,0000.62,0000.50,0000.46
2024-01-21 10:26:00,SystemResetWarning,0820.9,4.99,000.00,018.8,017.9,000.0,027.1,020.0,17.6,0000.0,0000.63,0000.50,0000.46
2024-01-21 10:27:00,SystemResetWarning,0820.9,4.99,000.00,018.8,017.9,000.0,027.1,020.0,17.6,0000.0,0000.65,0000.51,0000.46
2024-01-21 10:28:00,SystemResetWarning,0821.0,5.00,000.00,018.8,017.9,000.0,027.1,020.0,17.7,0000.0,0000.64,0000.51,0000.47
2024-01-21 10:29:00,SystemResetWarning,0820.8,5.00,000.00,018.8,017.9,000.0,027.1,020.0,17.7,0000.0,0000.63,0000.51,0000.48
2024-01-21 10:30:00,SystemResetWarning,0820.9,5.01,000.00,018.8,017.9,000.0,027.1,020.0,17.6,0000.0,0000.63,0000.52,0000.48
2024-01-21 10:31:00,SystemResetWarning,0820.9,5.01,000.00,018.8,017.9,000.0,027.1,020.0,17.8,0000.0,0000.65,0000.53,0000.49
2024-01-21 10:32:00,SystemResetWarning,0820.9,5.00,000.00,018.8,017.9,000.0,027.1,020.0,17.6,0000.0,0000.66,0000.54,0000.49
2024-01-21 10:33:00,SystemResetWarning,0820.8,5.00,000.00,018.8,017.9,000.0,027.1,020.0,17.7,0000.0,0000.69,0000.55,0000.50
2024-01-21 10:34:00,SystemResetWarning,0820.8,4.99,000.00,018.8,017.9,000.0,027.1,020.0,17.8,0000.0,0001.01,0000.56,0000.50
2024-01-21 10:35:00,SystemResetWarning,0820.8,5.00,000.00,018.8,017.9,000.0,027.1,020.0,17.7,0000.0,0001.08,0000.57,0000.50
2024-01-21 10:36:00,SystemResetWarning,0820.8,5.00,000.00,018.8,017.9,000.0,027.1,020.0,17.5,0000.0,0001.12,0000.58,0000.50
2024-01-21 10:37:00,SystemResetWarning,0820.8,5.00,000.00,018.8,017.9,000.0,027.1,020.0,17.7,0000.0,0001.11,0000.57,0000.50
2024-01-21 10:38:00,SystemResetWarning,0820.8,4.99,000.00,018.8,017.9,000.0,027.1,020.0,17.8,0000.0,0001.10,0000.57,0000.49
2024-01-21 10:39:00,SystemResetWarning,0820.8,5.01,000.00,018.8,017.9,000.0,027.1,020.0,17.7,0000.0,0001.10,0000.57,0000.49
2024-01-21 10:40:00,SystemResetWarning,0820.8,5.01,000.00,018.8,017.9,000.0,027.1,020.0,17.7,0000.0,0001.08,0000.55,0000.48
2024-01-21 10:41:00,SystemResetWarning,0820.7,5.01,000.00,018.8,017.9,000.0,027.1,020.0,17.8,0000.0,0001.11,0000.57,0000.48
2024-01-21 10:42:00,SystemResetWarning,0820.7,5.00,000.00,018.8,018.0,000.0,027.1,020.0,17.6,0000.0,0001.16,0000.58,0000.48
2024-01-21 10:43:00,SystemResetWarning,0820.7,4.99,000.00,018.8,017.9,000.0,027.1,020.0,17.6,0000.0,0001.18,0000.59,0000.48
2024-01-21 10:44:00,SystemResetWarning,0820.6,5.00,000.00,018.8,017.9,000.0,027.1,020.0,17.7,0000.0,0001.18,0000.59,0000.48
2024-01-21 10:45:00,SystemResetWarning,0820.6,5.01,000.00,018.8,017.9,000.0,027.1,020.0,17.7,0000.0,0001.03,0000.60,0000.48
2024-01-21 10:46:00,SystemResetWarning,0820.6,5.00,000.00,018.8,017.9,000.0,027.1,020.0,17.7,0000.0,0000.86,0000.60,0000.48
2024-01-21 10:47:00,SystemResetWarning,0820.5,4.99,000.00,018.8,017.9,000.0,027.1,020.0,17.7,0000.0,0000.82,0000.59,0000.47
2024-01-21 10:48:00,SystemResetWarning,0820.6,4.99,000.00,018.8,017.9,000.0,027.1,020.0,17.7,0000.0,0000.83,0000.60,0000.47
2024-01-21 10:49:00,SystemResetWarning,0820.5,5.01,000.00,018.8,017.9,000.0,027.1,020.0,17.7,0000.0,0000.91,0000.62,0000.48
2024-01-21 10:50:00,SystemResetWarning,0820.5,5.00,000.00,018.8,017.9,000.0,027.1,020.0,17.9,0000.0,0000.91,0000.62,0000.48
2024-01-21 10:51:00,SystemResetWarning,0820.6,5.01,000.00,018.8,017.9,000.0,027.2,020.0,17.9,0000.0,0000.91,0000.62,0000.48
2024-01-21 10:52:00,SystemResetWarning,0820.7,5.00,000.00,018.8,017.9,000.0,027.2,020.0,18.1,0000.0,0000.87,0000.61,0000.48
2024-01-21 10:53:00,SystemResetWarning,0820.7,5.00,000.00,018.8,017.9,000.0,027.2,020.0,18.1,0000.0,0000.84,0000.60,0000.48
2024-01-21 10:54:00,SystemResetWarning,0820.7,4.99,000.00,018.8,017.9,000.0,027.2,020.0,18.1,0000.0,0000.81,0000.59,0000.48
2024-01-21 10:55:00,SystemResetWarning,0820.8,4.99,000.00,018.8,017.9,000.0,027.2,020.0,18.2,0000.0,0000.85,0000.61,0000.49
2024-01-21 10:56:00,SystemResetWarning,0820.8,5.01,000.00,018.8,017.9,000.0,027.1,020.0,18.1,0000.0,0000.82,0000.60,0000.49
2024-01-21 10:57:00,SystemResetWarning,0820.8,5.01,000.00,018.8,017.9,000.0,027.1,020.0,18.0,0000.0,0000.79,0000.59,0000.49
2024-01-21 10:58:00,SystemResetWarning,0820.8,5.00,000.00,018.8,017.9,000.0,027.1,020.0,18.2,0000.0,0000.80,0000.60,0000.49
2024-01-21 10:59:00,SystemResetWarning,0820.8,5.00,000.00,018.8,017.9,000.0,027.2,020.0,18.2,0000.0,0000.81,0000.60,0000.49
